NOAA 16 DEB, 41292

Orbit data source: Space-Track

NOAA 16 DEB, 41292 is space debris in SSO originally from a launch on Thu, 21 Sep 2000 UTC launched from the Air Force Western Test Range (AFWTR). Debris objects in space refer to the collection of defunct objects orbiting the Earth. Examples of debris include non-operational satellites, rocket bodies, and fragments generated from explosions, collisions, or faulty payload assembly.

Loading next visibility...
Identifier
41292, 2000-055GU
Orbit
SSO
Country
Flag of USUS
Related business
Manufacturer
Unknown
Mission
Spacecraft
Bus & Motor
Unknown
Mass
Unknown
Launch date (UTC)
2000-09-21 (25 years ago)
Launch vehicle
Unknown
Launch site
Air Force Western Test Range (AFWTR)
Object type
Payload
Rocket body
Debris
Shape & HBR
Unknown shape, 0.1 m
Radar Cross Section
Small (<0.1 m²)

Expand to show TLE details & history
Last TLE update: 1 day ago

TLE from 1 day ago
0 NOAA 16 DEB
1 41292U 00055GU  26034.41931650  .00009558  00000-0  21255-2 0  9996
2 41292  98.9726 261.0057 0033245  68.6517 291.8221 14.56865882528342
Epoch: 2026-02-03T10:03Z
TLE epoch observation values (Epoch: 2026-02-03T10:03:48.945Z)
Latitude
-0.00012°
Longitude
-23.54874°
Altitude
697.583 km
Speed
7.512 km/s
True Right ascension
17h 24m 01s
True Declination
0° 00' 00"
Sunlit
Object was in daylight at epoch
Visualization orbit readout
Latitude
Unknown
Longitude
Unknown
Altitude
Unknown
Speed
Unknown
Apparent Right ascension
Unknown
Apparent Declination
Unknown
Sunlit
N/A
Visualization observer readout
Local Sidereal Time
15:35:40
Azimuth
Unknown
Elevation
Unknown
Doppler factor
Unknown
Orbital elements
Apogee altitude
723.967 km
Perigee altitude
676.902 km
Semi-major axis
7,078.571 km
Eccentricity
0.00332
Inclination
98.9726°
RAAN
261.0057°
Arg. of periapsis
68.6517°
True anomaly
291.46789°
Mean anomaly
291.8221°
Eccentric anomaly
291.64505°
Mean motion
3.64439 °/min
Orbital period
98.78 mins
BSTAR
0.0021255
Loading maneuver chart data...
Computing Atmospheric mass density...
Loading historical data...
Loading historical data...
Loading historical data...
Loading historical data...
Loading historical data...
Loading historical data...
Loading historical data...

Documentation

Showing up to 5 results
|